Weather History for Jonesboro, AR

Change the Weather History Date:

Monday, July 28, 2014

  Actual Average Record
Temperature  
Mean Temperature 77 °F 81 °F  
Max Temperature 85 °F 91 °F 109 °F (1930)
Min Temperature 68 °F 71 °F 54 °F (1897)
Degree Days  
Heating Degree Days 0 0  
Month to date heating degree days 0 0  
Since 1 June heating degree days 0 1  
Since 1 July heating degree days 0 0  
Cooling Degree Days 12 16  
Month to date cooling degree days 311 447  
Year to date cooling degree days 951 1043  
Since 1 June cooling degree days 704 830  
Growing Degree Days 26 (Base 50)    
Moisture  
Dew Point 63 °F    
Average Humidity 66    
Maximum Humidity 84    
Minimum Humidity 48    
Precipitation  
Precipitation 0.00 in 0.08 in 2.92 in (2006)
Month to date precipitation 1.75 3.31  
Year to date precipitation 31.87 28.34  
Snow  
Snow 0.00 in 0.00 in - ()
Month to date snowfall 0.0 0.0  
Since 1 June snowfall 0.0 0.0  
Since 1 July snowfall 0.0 0.0  
Snow Depth 0.00 in    
Sea Level Pressure  
Sea Level Pressure 30.05 in    
Wind  
Wind Speed 7 mph (NNW)    
Max Wind Speed 16 mph    
Max Gust Speed 20 mph    
Visibility 10 miles    
Events      
T = Trace of Precipitation, MM = Missing Value Source: NWS Daily Summary

Daily Weather History Graph

Daily Weather History Graph

Search for Another Location

Airport:

Trip Planner

Search our weather history database for the weather conditions in past years. The results will help you decide how hot, cold, wet, or windy it might be!

Date:

Astronomy

Jul. 28, 2014 Rise Set
Actual Time 6:07 AM CDT 8:10 PM CDT
Civil Twilight 5:38 AM CDT 8:38 PM CDT
Nautical Twilight 5:04 AM CDT 9:13 PM CDT
Astronomical Twilight 4:26 AM CDT 9:50 PM CDT
Moon 7:43 AM CDT (7/28) 8:58 PM CDT (7/28)
Length of Visible Light 15h 00m
Length of Day
14h 03m
Waxing Crescent, 3% of the Moon is Illuminated
Jul 28
Waxing Crescent
Aug 3
First Quarter
Aug 10
Full
Aug 17
Last Quarter
Aug 25
New

Hourly Weather History & Observations

Time (CDT) Temp. Heat Index Dew Point Humidity Pressure Visibility Wind Dir Wind Speed Gust Speed Precip Events Conditions
12:53 AM 77.0 °F - 66.0 °F 69% 29.97 in 10.0 mi NW 3.5 mph - N/A   Clear
1:53 AM 75.9 °F - 63.0 °F 64% 29.98 in 10.0 mi NNW 4.6 mph - N/A   Clear
2:53 AM 73.0 °F - 63.0 °F 71% 29.99 in 10.0 mi NW 5.8 mph - N/A   Clear
3:53 AM 72.0 °F - 62.1 °F 71% 30.01 in 10.0 mi North 5.8 mph - N/A   Clear
4:53 AM 70.0 °F - 62.1 °F 76% 30.02 in 10.0 mi NNW 3.5 mph - N/A   Clear
5:53 AM 68.0 °F - 62.1 °F 81% 30.04 in 10.0 mi NNW 4.6 mph - N/A   Clear
6:53 AM 69.1 °F - 62.1 °F 78% 30.06 in 10.0 mi NNW 4.6 mph - N/A   Clear
7:53 AM 72.0 °F - 61.0 °F 68% 30.07 in 10.0 mi North 8.1 mph - N/A   Clear
8:53 AM 73.4 °F - 60.8 °F 65% 30.10 in 10.0 mi NNW 8.1 mph - N/A   Clear
9:53 AM 75.9 °F - 62.1 °F 62% 30.10 in 10.0 mi NW 8.1 mph - N/A   Clear
10:53 AM 77.0 °F - 63.0 °F 62% 30.10 in 10.0 mi North 9.2 mph - N/A   Clear
11:53 AM 79.0 °F - 63.0 °F 58% 30.09 in 10.0 mi WNW 8.1 mph - N/A   Clear
12:53 PM 80.6 °F 81.8 °F 62.6 °F 54% 30.09 in 10.0 mi NNW 5.8 mph - N/A   Clear
1:53 PM 80.6 °F 81.8 °F 62.6 °F 54% 30.07 in 10.0 mi NW 6.9 mph - N/A   Clear
2:53 PM 82.9 °F 84.0 °F 63.0 °F 51% 30.06 in 10.0 mi NW 10.4 mph 18.4 mph N/A   Partly Cloudy
3:53 PM 82.9 °F 84.0 °F 63.0 °F 51% 30.04 in 10.0 mi North 9.2 mph - N/A   Partly Cloudy
4:53 PM 84.0 °F 84.9 °F 63.0 °F 49% 30.04 in 10.0 mi North 9.2 mph - N/A   Partly Cloudy
5:53 PM 84.0 °F 84.9 °F 63.0 °F 49% 30.03 in 10.0 mi NNW 4.6 mph - N/A   Clear
6:53 PM 82.0 °F 83.1 °F 63.0 °F 52% 30.01 in 10.0 mi NNW 4.6 mph - N/A   Clear
7:53 PM 77.0 °F - 66.0 °F 69% 30.01 in 10.0 mi Calm Calm - N/A   Partly Cloudy
8:53 PM 72.0 °F - 66.9 °F 84% 30.03 in 10.0 mi NNW 3.5 mph - N/A   Clear
9:53 PM 73.9 °F - 64.9 °F 73% 30.06 in 10.0 mi North 5.8 mph - N/A   Overcast
10:53 PM 73.9 °F - 64.9 °F 73% 30.06 in 10.0 mi NE 8.1 mph - N/A   Mostly Cloudy
11:53 PM 73.0 °F - 64.0 °F 73% 30.08 in 10.0 mi NE 6.9 mph - N/A   Mostly Cloudy